BREEZE-M R/B, 40385

Orbit data source: Space-Track

BREEZE-M R/B, 40385 is space debris in HEO originally from a launch on Sun, 01 Feb 2015 UTC launched from the Tyuratam Missile And Space Complex (TTMTR). Debris objects in space refer to the collection of defunct objects orbiting the Earth. Examples of debris include non-operational satellites, rocket bodies, and fragments generated from explosions, collisions, or faulty payload assembly.

Not visible in the next 10 days
Identifier
40385, 2015-005B
Orbit
HEO
Last TLE update
22 hours ago
Origin
Manufacturer
Khrunichev
Mission
Spacecraft
Bus & Motor
BRIZ, Unknown motor
Mass
~1,600 kg wet, 1,600 kg dry
Launch date (UTC)
2015-02-01 (10 years ago)
Launch vehicle
Unknown
Launch site
Tyuratam Missile And Space Complex (TTMTR)
Object type
Payload
Rocket body
Debris
Shape & HBR
Cyl, 4 m
Radar Cross Section
14.451 m², Large (>1 m²)

Expand to show TLE details & history

TLE from 22 hours ago
0 BREEZE-M R/B
1 40385U 15005B   25128.40359634 -.00000451  00000-0  00000-0 0  9994
2 40385  27.6866 311.4062 7616712  69.9939 352.3986  1.11109252 41653
Epoch: 2025-05-08T09:41Z
Definitive object data (Epoch: 2025-05-08T09:41:10.723Z)
Latitude
-0.00002°
Longitude
-60.5404°
Altitude
6,662.357 km
Speed
7.142 km/s
True Right ascension
20h 44m 54s
True Declination
0° 00' 00"
Sunlit
Object was in daylight at TLE epoch
Visualization TLE readout
Latitude
26.61278°
Longitude
47.07493°
Altitude
3,739.08 km
Speed
8.289 km/s
Apparent Right ascension
03h 59m 05s
Apparent Declination
1° 49' 26"
Sunlit
Object is in daylight
Visualization observer readout
Local Sidereal Time
16:05:58
Azimuth
2.579° NNE
Elevation
-48.23°
Doppler factor
1
Orbital elements
Apogee altitude
62,994.916 km
Perigee altitude
3,007.04 km
Semi-major axis
39,379.115 km
Eccentricity
0.7616712
Inclination
27.6866°
RAAN
311.4062°
Arg. of periapsis
69.9939°
True anomaly
291.1985°
Mean anomaly
352.3986°
Eccentric anomaly
331.72773°
Mean motion
0.27774 °/min
BSTAR
Unknown
Orbital period
1296.16 mins
Loading maneuver chart data...
Loading SW <> Apogee altitude chart data...
Loading historical data...
Loading historical data...
Loading historical data...
Loading historical data...
Loading historical data...
Loading historical data...
Loading historical data...
Other satellites on launch #5 in the year 2015 (2015-02-01 UTC)

BREEZE-M R/B Visibility forecast

Observer location: undefined°, undefined°

BREEZE-M R/B is not visible in the next 10 days
Span
Click to sort rows by Start time (UTC) header in descending order
Start Az.
Max El. time (UTC)
Max El. Az.
Max El.
End time (UTC)
End Az.
|